This is the latest recevied weather packets stored in our database for station/object JH1LWU-13. If no packets are shown the sender has not sent any weather packets the latest 10 day(s).
| Time | Temp. | Humidity | Pressure | Rain* | Wind** | Luminosity | Snow |
|---|---|---|---|---|---|---|---|
| 1777935864 | 18.89° C | 26% | 1015 hPa | 0 mm | - | - | - |
| 1777934063 | 17.78° C | 28% | 1015 hPa | 0 mm | - | - | - |
| 1777932262 | 16.67° C | 30% | 1015 hPa | 0 mm | - | - | - |
| 1777930461 | 15.56° C | 35% | 1013 hPa | 0 mm | - | - | - |
| 1777928660 | 13.89° C | 38% | 1015 hPa | 0 mm | - | - | - |
| 1777926859 | 12.78° C | 39% | 1013 hPa | 0 mm | - | - | - |
| 1777925058 | 12.78° C | 40% | 1012 hPa | 0 mm | - | - | - |
| 1777923257 | 12.78° C | 41% | 1010 hPa | 0 mm | - | - | - |
| 1777921456 | 12.78° C | 40% | 1010 hPa | 0 mm | - | - | - |
| 1777919655 | 12.78° C | 41% | 1011 hPa | 0 mm | - | - | - |
| 1777917854 | 12.78° C | 40% | 1009 hPa | 0 mm | - | - | - |
| 1777916053 | 12.78° C | 39% | 1008 hPa | 0 mm | - | - | - |
| 1777914252 | 13.33° C | 39% | 1010 hPa | 0 mm | - | - | - |
| 1777912451 | 13.33° C | 39% | 1009 hPa | 0 mm | - | - | - |
| 1777910650 | 13.89° C | 38% | 1007 hPa | 0 mm | - | - | - |
| 1777908849 | 14.44° C | 37% | 1005 hPa | 0 mm | - | - | - |
| 1777907048 | 15° C | 38% | 1007 hPa | 0 mm | - | - | - |
| 1777905247 | 16.11° C | 38% | 1003 hPa | 0 mm | - | - | - |
| 1777903446 | 16.11° C | 38% | 1004 hPa | 0 mm | - | - | - |
| 1777901645 | 16.67° C | 38% | 1003 hPa | 0 mm | - | - | - |
| 1777899844 | 17.78° C | 37% | 1003 hPa | 0 mm | - | - | - |
| 1777898043 | 18.89° C | 36% | 1000 hPa | 0 mm | - | - | - |
| 1777896242 | 18.89° C | 59% | 1001 hPa | 0 mm | - | - | - |
| 1777894441 | 19.44° C | 58% | 1000 hPa | 0 mm | - | - | - |
| 1777892640 | 19.44° C | 55% | 999 hPa | 0 mm | - | - | - |
* Rain latest hour (hover to see other rain measurements)
** Current wind speed in m/s (hover to see current wind gust speed)